Time,TemperatureF,DewpointF,PressureIn,WindDirection,WindDirectionDegrees,WindSpeedMPH,WindSpeedGustMPH,Humidity,HourlyPrecipIn,Conditions,Clouds,dailyrainin,SoftwareType,DateUTC
2013-07-28 05:53:00,51.0,46.0,30.24,North,360,1.0,4.0,84,0.00,,,-99.99,,2013-07-28 12:53:00,
2013-07-28 06:02:00,51.0,46.0,30.25,North,360,0.0,2.0,84,0.00,,,-99.99,,2013-07-28 13:02:00,
2013-07-28 06:12:00,52.0,47.0,30.25,North,360,0.0,2.0,84,0.00,,,-99.99,,2013-07-28 13:12:00,
2013-07-28 06:32:00,56.0,51.0,30.26,North,360,0.0,1.0,84,0.00,,,-99.99,,2013-07-28 13:32:00,
2013-07-28 06:33:00,60.0,55.0,30.26,North,360,0.0,0.0,84,0.00,,,-99.99,,2013-07-28 13:33:00,
2013-07-28 06:43:00,58.0,53.0,30.26,North,360,0.0,1.0,84,0.00,,,-99.99,,2013-07-28 13:43:00,
2013-07-28 06:52:00,60.0,55.0,30.26,North,360,0.0,0.0,84,0.00,,,-99.99,,2013-07-28 13:52:00,
2013-07-28 07:02:00,60.0,55.0,30.26,North,360,0.0,0.0,84,0.00,,,-99.99,,2013-07-28 14:02:00,
2013-07-28 07:12:00,60.0,55.0,30.26,North,360,0.0,0.0,84,0.00,,,-99.99,,2013-07-28 14:12:00,
2013-07-28 07:22:00,60.0,55.0,30.26,North,360,0.0,0.0,84,0.00,,,-99.99,,2013-07-28 14:22:00,
2013-07-28 07:53:00,63.0,58.0,30.27,North,360,1.0,3.0,84,0.00,,,-99.99,,2013-07-28 14:53:00,
2013-07-28 08:02:00,64.0,59.0,30.27,North,360,0.0,2.0,84,0.00,,,-99.99,,2013-07-28 15:02:00,
2013-07-28 08:12:00,64.0,59.0,30.27,North,360,0.0,2.0,84,0.00,,,-99.99,,2013-07-28 15:12:00,
2013-07-28 08:22:00,65.0,60.0,30.27,North,360,0.0,4.0,84,0.00,,,-99.99,,2013-07-28 15:22:00,
2013-07-28 08:32:00,65.0,60.0,30.27,North,360,0.0,4.0,84,0.00,,,-99.99,,2013-07-28 15:32:00,
2013-07-28 08:43:00,69.0,64.0,30.27,North,360,1.0,4.0,84,0.00,,,-99.99,,2013-07-28 15:43:00,
2013-07-28 08:53:00,70.0,63.0,30.27,North,360,1.0,3.0,78,0.00,,,-99.99,,2013-07-28 15:53:00,
2013-07-28 09:01:00,70.0,63.0,30.27,North,360,1.0,3.0,78,0.00,,,-99.99,,2013-07-28 16:01:00,
2013-07-28 09:32:00,71.0,64.0,30.27,North,360,2.0,6.0,78,0.00,,,-99.99,,2013-07-28 16:32:00,
2013-07-28 09:43:00,70.0,62.0,30.27,North,360,1.0,6.0,76,0.00,,,-99.99,,2013-07-28 16:43:00,
2013-07-28 09:52:00,70.0,62.0,30.27,North,360,1.0,6.0,76,0.00,,,-99.99,,2013-07-28 16:52:00,
2013-07-28 10:02:00,70.0,62.0,30.27,North,360,1.0,6.0,76,0.00,,,-99.99,,2013-07-28 17:02:00,
2013-07-28 10:12:00,69.0,63.0,30.27,North,360,2.0,6.0,80,0.00,,,-99.99,,2013-07-28 17:12:00,
2013-07-28 10:22:00,69.0,63.0,30.27,North,360,2.0,6.0,80,0.00,,,-99.99,,2013-07-28 17:22:00,
2013-07-28 10:32:00,69.0,63.0,30.27,North,360,2.0,6.0,80,0.00,,,-99.99,,2013-07-28 17:32:00,
2013-07-28 10:43:00,71.0,61.0,30.27,North,360,7.0,15.0,70,0.00,,,-99.99,,2013-07-28 17:43:00,
2013-07-28 10:53:00,70.0,59.0,30.27,North,360,7.0,15.0,67,0.00,,,-99.99,,2013-07-28 17:53:00,
2013-07-28 11:02:00,70.0,59.0,30.27,North,360,7.0,15.0,67,0.00,,,-99.99,,2013-07-28 18:02:00,
2013-07-28 11:12:00,70.0,59.0,30.27,North,360,7.0,15.0,67,0.00,,,-99.99,,2013-07-28 18:12:00,
2013-07-28 11:22:00,70.0,59.0,30.27,North,360,7.0,15.0,67,0.00,,,-99.99,,2013-07-28 18:22:00,
2013-07-28 11:32:00,73.0,55.0,30.27,North,360,18.0,28.0,54,0.01,,,-99.99,,2013-07-28 18:32:00,
2013-07-28 11:43:00,73.0,55.0,30.27,North,360,18.0,28.0,54,0.01,,,-99.99,,2013-07-28 18:43:00,
2013-07-28 11:52:00,73.0,55.0,30.27,North,360,18.0,28.0,54,0.01,,,-99.99,,2013-07-28 18:52:00,
2013-07-28 12:02:00,72.0,54.0,30.26,North,360,16.0,23.0,53,0.01,,,-99.99,,2013-07-28 19:02:00,
2013-07-28 12:11:00,74.0,56.0,30.26,North,360,13.0,23.0,53,0.00,,,-99.99,,2013-07-28 19:11:00,
2013-07-28 12:22:00,74.0,56.0,30.26,North,360,13.0,23.0,53,0.00,,,-99.99,,2013-07-28 19:22:00,
2013-07-28 12:32:00,74.0,56.0,30.26,North,360,13.0,23.0,53,0.00,,,-99.99,,2013-07-28 19:32:00,
2013-07-28 12:43:00,75.0,55.0,30.26,North,360,17.0,27.0,50,0.00,,,-99.99,,2013-07-28 19:43:00,
2013-07-28 12:52:00,75.0,55.0,30.26,North,360,17.0,27.0,50,0.00,,,-99.99,,2013-07-28 19:52:00,
2013-07-28 13:02:00,75.0,55.0,30.26,North,360,17.0,27.0,50,0.00,,,-99.99,,2013-07-28 20:02:00,
2013-07-28 13:12:00,75.0,55.0,30.26,North,360,17.0,27.0,50,0.00,,,-99.99,,2013-07-28 20:12:00,
2013-07-28 13:22:00,75.0,55.0,30.26,North,360,17.0,27.0,50,0.00,,,-99.99,,2013-07-28 20:22:00,
2013-07-28 13:43:00,76.0,54.0,30.24,North,360,16.0,24.0,47,0.00,,,-99.99,,2013-07-28 20:43:00,
2013-07-28 13:53:00,76.0,54.0,30.24,North,360,16.0,24.0,47,0.00,,,-99.99,,2013-07-28 20:53:00,
2013-07-28 14:02:00,74.0,55.0,30.24,North,360,14.0,23.0,52,0.00,,,-99.99,,2013-07-28 21:02:00,
2013-07-28 14:12:00,74.0,55.0,30.24,North,360,14.0,23.0,52,0.00,,,-99.99,,2013-07-28 21:12:00,
2013-07-28 14:32:00,72.0,60.0,30.23,North,360,6.0,13.0,65,0.00,,,-99.99,,2013-07-28 21:32:00,
2013-07-28 14:43:00,72.0,60.0,30.23,North,360,6.0,13.0,65,0.00,,,-99.99,,2013-07-28 21:43:00,
2013-07-28 14:52:00,72.0,60.0,30.23,North,360,6.0,13.0,65,0.00,,,-99.99,,2013-07-28 21:52:00,
2013-07-28 15:01:00,72.0,60.0,30.23,North,360,6.0,13.0,65,0.00,,,-99.99,,2013-07-28 22:01:00,
2013-07-28 15:12:00,72.0,60.0,30.23,North,360,6.0,13.0,65,0.00,,,-99.99,,2013-07-28 22:12:00,
2013-07-28 15:43:00,67.0,62.0,30.22,North,360,4.0,9.0,84,0.06,,,-99.99,,2013-07-28 22:43:00,
2013-07-28 15:52:00,68.0,62.0,30.22,North,360,6.0,12.0,82,0.01,,,-99.99,,2013-07-28 22:52:00,
2013-07-28 16:22:00,65.0,59.0,30.24,North,360,8.0,14.0,81,0.02,,,-99.99,,2013-07-28 23:22:00,
2013-07-28 16:32:00,65.0,59.0,30.24,North,360,8.0,14.0,81,0.02,,,-99.99,,2013-07-28 23:32:00,
2013-07-28 16:42:00,65.0,59.0,30.24,North,360,8.0,14.0,81,0.02,,,-99.99,,2013-07-28 23:42:00,
2013-07-28 16:53:00,65.0,59.0,30.24,North,360,8.0,14.0,81,0.02,,,-99.99,,2013-07-28 23:53:00,
2013-07-28 17:02:00,61.0,56.0,30.25,North,360,5.0,14.0,84,0.13,,,-99.99,,2013-07-29 00:02:00,
2013-07-28 17:12:00,61.0,56.0,30.25,North,360,5.0,14.0,84,0.13,,,-99.99,,2013-07-29 00:12:00,
2013-07-28 17:22:00,62.0,57.0,30.25,North,360,9.0,15.0,84,0.11,,,-99.99,,2013-07-29 00:22:00,
2013-07-28 17:32:00,61.0,56.0,30.25,North,360,9.0,14.0,84,0.05,,,-99.99,,2013-07-29 00:32:00,
2013-07-28 17:43:00,61.0,56.0,30.25,North,360,7.0,14.0,84,0.00,,,-99.99,,2013-07-29 00:43:00,
2013-07-28 17:52:00,60.0,55.0,30.25,North,360,5.0,10.0,84,0.00,,,-99.99,,2013-07-29 00:52:00,
2013-07-28 18:01:00,60.0,55.0,30.26,North,360,8.0,15.0,84,0.01,,,-99.99,,2013-07-29 01:01:00,
2013-07-28 18:11:00,60.0,55.0,30.26,North,360,8.0,15.0,84,0.01,,,-99.99,,2013-07-29 01:11:00,
2013-07-28 18:22:00,60.0,55.0,30.26,North,360,8.0,15.0,84,0.01,,,-99.99,,2013-07-29 01:22:00,
2013-07-28 18:33:00,60.0,55.0,30.26,North,360,8.0,15.0,84,0.01,,,-99.99,,2013-07-29 01:33:00,
2013-07-28 18:42:00,64.0,58.0,30.24,North,360,2.0,8.0,81,0.02,,,-99.99,,2013-07-29 01:42:00,
2013-07-28 19:00:00,64.0,58.0,30.24,North,360,2.0,8.0,81,0.02,,,-99.99,,2013-07-29 02:00:00,
2013-07-28 19:12:00,64.0,58.0,30.24,North,360,4.0,8.0,82,0.01,,,-99.99,,2013-07-29 02:12:00,
2013-07-28 19:23:00,63.0,58.0,30.25,North,360,3.0,5.0,84,0.00,,,-99.99,,2013-07-29 02:23:00,
2013-07-28 19:44:00,61.0,56.0,30.23,North,360,5.0,8.0,84,0.00,,,-99.99,,2013-07-29 02:44:00,
2013-07-28 19:53:00,59.0,54.0,30.24,North,360,5.0,9.0,84,0.00,,,-99.99,,2013-07-29 02:53:00,
2013-07-28 20:03:00,59.0,54.0,30.24,North,360,5.0,9.0,84,0.00,,,-99.99,,2013-07-29 03:03:00,
2013-07-28 20:13:00,59.0,54.0,30.23,North,360,5.0,8.0,84,0.00,,,-99.99,,2013-07-29 03:13:00,
2013-07-28 20:22:00,59.0,54.0,30.23,North,360,5.0,8.0,84,0.00,,,-99.99,,2013-07-29 03:22:00,
2013-07-28 20:33:00,58.0,53.0,30.24,North,360,3.0,6.0,84,0.00,,,-99.99,,2013-07-29 03:33:00,
2013-07-28 20:44:00,58.0,53.0,30.24,North,360,2.0,7.0,84,0.00,,,-99.99,,2013-07-29 03:44:00,
2013-07-28 20:52:00,58.0,53.0,30.24,North,360,3.0,7.0,84,0.00,,,-99.99,,2013-07-29 03:52:00,
2013-07-28 21:02:00,58.0,53.0,30.24,North,360,3.0,5.0,84,0.00,,,-99.99,,2013-07-29 04:02:00,
2013-07-28 21:11:00,58.0,53.0,30.24,North,360,3.0,5.0,84,0.00,,,-99.99,,2013-07-29 04:11:00,
2013-07-28 21:22:00,58.0,53.0,30.24,North,360,3.0,5.0,84,0.00,,,-99.99,,2013-07-29 04:22:00,
2013-07-28 21:32:00,56.0,51.0,30.26,North,360,3.0,9.0,84,0.00,,,-99.99,,2013-07-29 04:32:00,
2013-07-28 21:43:00,56.0,51.0,30.26,North,360,3.0,9.0,84,0.00,,,-99.99,,2013-07-29 04:43:00,
2013-07-28 21:53:00,56.0,51.0,30.26,North,360,3.0,9.0,84,0.00,,,-99.99,,2013-07-29 04:53:00,
2013-07-28 22:02:00,55.0,50.0,30.26,North,360,2.0,3.0,84,0.00,,,-99.99,,2013-07-29 05:02:00,
2013-07-28 22:12:00,55.0,50.0,30.26,North,360,2.0,3.0,84,0.00,,,-99.99,,2013-07-29 05:12:00,
2013-07-28 22:32:00,55.0,50.0,30.27,North,360,1.0,2.0,84,0.00,,,-99.99,,2013-07-29 05:32:00,
2013-07-28 22:43:00,55.0,50.0,30.27,North,360,1.0,3.0,84,0.00,,,-99.99,,2013-07-29 05:43:00,
2013-07-28 22:53:00,55.0,50.0,30.27,North,360,1.0,2.0,84,0.00,,,-99.99,,2013-07-29 05:53:00,
2013-07-28 23:02:00,55.0,50.0,30.27,North,360,1.0,3.0,84,0.00,,,-99.99,,2013-07-29 06:02:00,
2013-07-28 23:11:00,55.0,50.0,30.27,North,360,1.0,3.0,84,0.00,,,-99.99,,2013-07-29 06:11:00,
2013-07-28 23:22:00,56.0,51.0,30.26,North,360,0.0,2.0,84,0.00,,,-99.99,,2013-07-29 06:22:00,
2013-07-28 23:32:00,56.0,51.0,30.26,North,360,0.0,2.0,84,0.00,,,-99.99,,2013-07-29 06:32:00,
2013-07-28 23:52:00,58.0,53.0,30.26,North,360,2.0,8.0,84,0.01,,,-99.99,,2013-07-29 06:52:00,